User: anonymous   Login
Location: Albany
(35.0000°S, 118.0000°E)
Time: 03:49:59
(UTC-04:00)
Language:

Cosmos 2227 Rocket - Orbit

View from above orbital plane
View from above orbital plane
View from above satellite
View from above satellite

Ground track
Ground track

The orbit data is extracted from the following two-line orbital elements,

1 22285U 92093B   17228.04039875 -.00000279 +00000-0 -11954-3 0  9991
2 22285 071.0214 086.7264 0003552 002.0273 358.0864 14.15013689270728
Epoch (UTC): 16 August 2017 00:58:10
Eccentricity: 0.0003552
inclination: 71.0214°
perigee height: 840 km
apogee height: 845 km
right ascension of ascending node: 86.7264°
argument of perigee: 2.0273°
revolutions per day: 14.15013689
mean anomaly at epoch: 358.0864°
orbit number at epoch: 27072

The dashed part of the orbit path shows where the satellite is in the earth's shadow,  

DLR